When you browse on this site, cookies collect data to enhance your experience and personalize the content and advertising you see.
Visit our Privacy Policy to learn more. By continuing to use the site, you agree to this use of cookies and data.
  • In Denmark
  • List of Countries
  • For 7 days
  • Water Temperature
  • Weather Map
  • Weather Widgets
  • user-avatar
    Login

    Hourly Weather Fier

    Today, 10 April, Friday

    Time Temperature Precipitation Wind Pressure Humidity
    00:00 +12°C° 0 mm 1 mps 763 mmHg 72%
    01:00 +12°C° 0 mm 1 mps 763 mmHg 70%
    02:00 +12°C° 0 mm 1 mps 763 mmHg 70%
    03:00 +12°C° 0 mm 1 mps 763 mmHg 69%
    04:00 +12°C° 0 mm 1 mps 762 mmHg 69%
    05:00 +13°C° 0 mm 1 mps 763 mmHg 67%
    06:00 +14°C° 0 mm 1 mps 763 mmHg 65%
    07:00 +15°C° 0 mm 1 mps 763 mmHg 63%
    08:00 +16°C° 0 mm 1 mps 763 mmHg 59%
    09:00 +18°C° 0 mm 2 mps 763 mmHg 55%
    10:00 +20°C° 0 mm 2 mps 763 mmHg 51%
    11:00 +20°C° 0 mm 2 mps 763 mmHg 52%
    12:00 +21°C° 0 mm 3 mps 763 mmHg 52%
    13:00 +21°C° 0 mm 4 mps 762 mmHg 53%
    14:00 +21°C° 0 mm 4 mps 762 mmHg 55%
    15:00 +20°C° 0 mm 3 mps 762 mmHg 58%
    16:00 +20°C° 0 mm 3 mps 761 mmHg 60%
    17:00 +18°C° 0 mm 2 mps 762 mmHg 66%
    18:00 +16°C° 0 mm 2 mps 762 mmHg 71%
    19:00 +15°C° 0 mm 1 mps 762 mmHg 77%
    20:00 +14°C° 0 mm 1 mps 762 mmHg 77%
    21:00 +14°C° 0 mm 1 mps 763 mmHg 78%
    22:00 +14°C° 0 mm 1 mps 763 mmHg 78%
    23:00 +14°C° 0 mm 1 mps 763 mmHg 77%

    Tomorrow, 11 April, Saturday

    Time Temperature Precipitation Wind Pressure Humidity
    00:00 +13°C° 0 mm 1 mps 763 mmHg 76%
    01:00 +13°C° 0 mm 1 mps 763 mmHg 75%
    02:00 +13°C° 0 mm 1 mps 763 mmHg 75%
    03:00 +13°C° 0 mm 1 mps 763 mmHg 75%
    04:00 +13°C° 0 mm 1 mps 763 mmHg 75%
    05:00 +14°C° 0 mm 1 mps 763 mmHg 71%
    06:00 +15°C° 0 mm 1 mps 763 mmHg 68%
    07:00 +16°C° 0 mm 1 mps 763 mmHg 65%
    08:00 +19°C° 0 mm 1 mps 763 mmHg 60%
    09:00 +21°C° 0 mm 1 mps 764 mmHg 55%
    10:00 +22°C° 0 mm 1 mps 764 mmHg 50%
    11:00 +23°C° 0 mm 1 mps 764 mmHg 51%
    12:00 +23°C° 0 mm 2 mps 763 mmHg 52%
    13:00 +22°C° 0 mm 3 mps 763 mmHg 54%
    14:00 +22°C° 0 mm 3 mps 763 mmHg 56%
    15:00 +21°C° 0 mm 3 mps 763 mmHg 58%
    16:00 +20°C° 0 mm 3 mps 763 mmHg 60%
    17:00 +19°C° 0 mm 2 mps 763 mmHg 66%
    18:00 +17°C° 0 mm 2 mps 763 mmHg 72%
    19:00 +15°C° 0 mm 1 mps 763 mmHg 78%
    20:00 +15°C° 0 mm 1 mps 763 mmHg 77%
    21:00 +15°C° 0 mm 1 mps 764 mmHg 77%
    22:00 +13°C° 0 mm 0 mps 764 mmHg 77%
    23:00 +14°C° 0 mm 1 mps 764 mmHg 76%

    Day after tomorrow, 12 April, Sunday

    Time Temperature Precipitation Wind Pressure Humidity
    00:00 +14°C° 0 mm 1 mps 764 mmHg 75%
    01:00 +14°C° 0 mm 1 mps 764 mmHg 75%
    02:00 +14°C° 0 mm 1 mps 764 mmHg 74%
    03:00 +14°C° 0 mm 1 mps 764 mmHg 74%
    04:00 +13°C° 0 mm 1 mps 764 mmHg 73%
    05:00 +14°C° 0 mm 1 mps 764 mmHg 71%
    06:00 +16°C° 0 mm 1 mps 764 mmHg 68%
    07:00 +18°C° 0 mm 1 mps 764 mmHg 66%
    08:00 +19°C° 0 mm 1 mps 764 mmHg 62%
    09:00 +19°C° 0 mm 2 mps 764 mmHg 58%
    10:00 +21°C° 0 mm 2 mps 764 mmHg 54%
    11:00 +21°C° 0 mm 3 mps 764 mmHg 55%
    12:00 +21°C° 0 mm 3 mps 764 mmHg 56%
    13:00 +21°C° 0 mm 4 mps 764 mmHg 57%
    14:00 +21°C° 0 mm 3 mps 764 mmHg 57%
    15:00 +20°C° 0 mm 3 mps 763 mmHg 58%
    16:00 +20°C° 0 mm 2 mps 763 mmHg 58%
    17:00 +19°C° 0 mm 1 mps 763 mmHg 63%
    18:00 +18°C° 0 mm 1 mps 763 mmHg 68%
    19:00 +16°C° 0 mm 1 mps 763 mmHg 73%
    20:00 +15°C° 0 mm 1 mps 763 mmHg 73%
    21:00 +15°C° 0 mm 1 mps 763 mmHg 72%
    22:00 +15°C° 0 mm 1 mps 763 mmHg 71%
    23:00 +14°C° 0 mm 1 mps 763 mmHg 71%

    13 April, Monday

    Time Temperature Precipitation Wind Pressure Humidity
    00:00 +14°C° 0 mm 1 mps 763 mmHg 71%
    01:00 +14°C° 0 mm 1 mps 763 mmHg 70%
    02:00 +14°C° 0 mm 2 mps 763 mmHg 70%
    03:00 +13°C° 0 mm 2 mps 763 mmHg 70%
    04:00 +13°C° 0 mm 2 mps 763 mmHg 70%
    05:00 +14°C° 0 mm 2 mps 763 mmHg 69%
    06:00 +15°C° 0 mm 2 mps 763 mmHg 67%
    07:00 +16°C° 0 mm 2 mps 763 mmHg 65%
    08:00 +18°C° 0 mm 2 mps 763 mmHg 60%
    09:00 +19°C° 0 mm 2 mps 763 mmHg 55%
    10:00 +21°C° 0 mm 3 mps 763 mmHg 49%
    11:00 +21°C° 0 mm 3 mps 763 mmHg 49%
    12:00 +21°C° 0 mm 4 mps 762 mmHg 48%
    13:00 +21°C° 0 mm 5 mps 762 mmHg 48%
    14:00 +21°C° 0 mm 5 mps 762 mmHg 51%
    15:00 +20°C° 0 mm 5 mps 762 mmHg 54%
    16:00 +20°C° 0 mm 5 mps 761 mmHg 56%
    17:00 +17°C° 0 mm 5 mps 761 mmHg 63%
    18:00 +17°C° 0 mm 4 mps 761 mmHg 70%
    19:00 +14°C° 0 mm 4 mps 761 mmHg 77%
    20:00 +14°C° 0 mm 4 mps 761 mmHg 79%
    21:00 +13°C° 0 mm 3 mps 762 mmHg 81%
    22:00 +13°C° 0 mm 3 mps 762 mmHg 83%
    23:00 +12°C° 0 mm 3 mps 762 mmHg 82%

    14 April, Tuesday

    Time Temperature Precipitation Wind Pressure Humidity
    00:00 +12°C° 0 mm 3 mps 761 mmHg 81%
    01:00 +12°C° 0 mm 3 mps 761 mmHg 80%
    02:00 +11°C° 0 mm 3 mps 761 mmHg 78%
    03:00 +11°C° 0 mm 3 mps 761 mmHg 76%
    04:00 +11°C° 0 mm 3 mps 760 mmHg 75%
    05:00 +12°C° 0 mm 3 mps 760 mmHg 71%
    06:00 +13°C° 0 mm 3 mps 760 mmHg 68%
    07:00 +13°C° 0 mm 3 mps 760 mmHg 64%
    08:00 +16°C° 0 mm 3 mps 760 mmHg 58%
    09:00 +17°C° 0 mm 3 mps 760 mmHg 51%
    10:00 +19°C° 0 mm 3 mps 760 mmHg 44%
    11:00 +19°C° 0.2 mm 3 mps 760 mmHg 47%
    12:00 +18°C° 0.2 mm 3 mps 760 mmHg 51%
    13:00 +18°C° 0.2 mm 3 mps 760 mmHg 54%
    14:00 +18°C° 0 mm 3 mps 760 mmHg 54%
    15:00 +18°C° 0 mm 3 mps 759 mmHg 54%
    16:00 +19°C° 0 mm 2 mps 759 mmHg 54%
    17:00 +18°C° 0 mm 2 mps 759 mmHg 57%
    18:00 +17°C° 0 mm 2 mps 759 mmHg 60%
    19:00 +16°C° 0 mm 1 mps 758 mmHg 64%
    20:00 +15°C° 0 mm 2 mps 759 mmHg 63%
    21:00 +15°C° 0 mm 2 mps 759 mmHg 63%
    22:00 +15°C° 0 mm 2 mps 759 mmHg 63%
    23:00 +14°C° 0 mm 2 mps 759 mmHg 62%

    15 April, Wednesday

    Time Temperature Precipitation Wind Pressure Humidity
    00:00 +14°C° 0 mm 2 mps 759 mmHg 62%
    01:00 +14°C° 0 mm 2 mps 758 mmHg 61%
    02:00 +13°C° 0 mm 2 mps 758 mmHg 61%
    03:00 +13°C° 0 mm 2 mps 758 mmHg 60%
    04:00 +13°C° 0 mm 2 mps 758 mmHg 60%
    05:00 +14°C° 0 mm 2 mps 759 mmHg 59%
    06:00 +15°C° 0 mm 2 mps 759 mmHg 58%
    07:00 +16°C° 0 mm 2 mps 759 mmHg 57%
    08:00 +19°C° 0 mm 1 mps 759 mmHg 52%
    09:00 +21°C° 0 mm 1 mps 759 mmHg 46%
    10:00 +23°C° 0 mm 1 mps 759 mmHg 40%
    11:00 +23°C° 0 mm 2 mps 759 mmHg 41%
    12:00 +24°C° 0 mm 2 mps 759 mmHg 42%
    13:00 +24°C° 0 mm 3 mps 759 mmHg 44%
    14:00 +22°C° 0 mm 3 mps 759 mmHg 47%
    15:00 +22°C° 0 mm 3 mps 759 mmHg 50%
    16:00 +21°C° 0 mm 3 mps 758 mmHg 53%
    17:00 +19°C° 0 mm 3 mps 759 mmHg 59%
    18:00 +18°C° 0 mm 2 mps 759 mmHg 65%
    19:00 +16°C° 0 mm 2 mps 759 mmHg 70%
    20:00 +16°C° 0 mm 1 mps 760 mmHg 70%
    21:00 +16°C° 0 mm 1 mps 760 mmHg 70%
    22:00 +15°C° 0 mm 1 mps 761 mmHg 70%
    23:00 +15°C° 0 mm 1 mps 761 mmHg 71%
    Show more